Location: 22
(39.7117°N, 89.5929°W)
Time: 02:56:49
(UTC-05:00)

A-11 Canister half - Pass Details

Date: 18 June 2023
Orbit: 1524 x 1684 km, 47.3° (Epoch: 30 September)

Event Time Altitude Azimuth Distance (km) Brightness Sun altitude
Rises 20:45:04 0° 278° (W) 4,689 12.9 -3.4°
Reaches altitude 10° 20:48:15 10° 283° (WNW) 3,697 12.4 -3.9°
Maximum altitude 20:57:19 54° 360° (N) 1,801 9.7 -5.3°
Drops below altitude 10° 21:06:25 10° 76° (ENE) 3,714 10.7 -6.7°
Sets 21:09:37 0° 82° (E) 4,712 11.1 -7.2°
